Weather in Jurbarkas

Lithuania     55°04′49″N   22°45′31″E
temp.,
°C
wind,
m/s
gust,
m/s
humid.,
%
clouds,
%
prec.,
mm/h
press.,
hPa
HPBL,
m
6 august, fri
fri600:00+14ene51279100 0.0 1010382
03:00+12ene61384100 0.0 1009497
06:00+11ne71588100 0.0 1007564
09:00+13ne71486100 0.2 1006606
12:00+13ne91794100 3.5 1004724
15:00+13ne81695100 6.1 1002821
18:00+14ne81495100 0.4 1001770
21:00+14ne71396100 0.8 1000595
7 august, sat
sat700:00+15ne51198100 1.8 999577
03:00+15ne4999100 6.5 998458
06:00+15ne2599100 0.2 998258
09:00+15ne1298100 1.1 99998
12:00+16w239785 1.0 1001252
15:00+16wnw479657 1.3 1003443
18:00+18w478845 0.3 1005650
21:00+17w5119284 0.8 1007515
8 august, sun
sun800:00+14wsw359698 0.0 100987
03:00+12sw34955 0.0 101058
06:00+12sse229314 0.0 101029
09:00+17se3585100 0.0 1010217
12:00+22ese5767100 0.0 1010670
15:00+23se5865100 0.1 10091260
18:00+23ssw4874100 0.4 1008903
21:00+19wsw5118358 0.6 1010521
9 august, mon
mon900:00+17wsw6119083 0.0 1012738
03:00+14ssw479824 0.0 1014165
06:00+14sw389798 0.0 1015153
09:00+18sw47775 0.0 1016356
12:00+22wsw69550 0.0 10171382
15:00+23wsw684912 0.1 10172149
18:00+22w56605 0.3 10181269
21:00+17w22814 0.3 101927
10 august, tue
tue1000:00+15wnw00895 0.0 102010
03:00+14s229086 0.0 102014
06:00+15se3589100 0.0 101987
09:00+18sse3581100 0.6 1019220
12:00+23ssw3451100 0.1 1018983
15:00+24sw344796 0.1 10171778
18:00+16wsw5994100 2.1 1017334
21:00+16s229127 3.9 101619